SXS9CU LIMC-LTBJ

Flight info

Callsign SXS9CU
Flight time 2h 5m
Altitude 37000
Route VAKON DCT OTKEK DCT LABIN DCT MEDUX UM867 KOGAT DCT DISOR UL608 FSK UN128 RIKSO RIKS1G
Aircraft B38M/M-SADE2E3GIJ4J7RW/LB1D1

Departure

Time 2026-05-04 16:48
Airport Milan Malpensa International Airport (LIMC)

Arrival

Time 2026-05-04 18:54
Airport Adnan Menderes International Airport (LTBJ)
Time Latitude Longitude Altitude Speed Heading
2026-05-04 16:07 45.62849 8.71879 743 ft 0 kts 78°
2026-05-04 16:30 45.62844 8.71842 743 ft 2 kts 78°
2026-05-04 16:31 45.62841 8.71795 743 ft 2 kts 116°
2026-05-04 16:31 45.62865 8.71772 743 ft 0 kts 170°
2026-05-04 16:34 45.62860 8.71773 743 ft 2 kts 170°
2026-05-04 16:35 45.62741 8.71804 741 ft 8 kts 169°
2026-05-04 16:35 45.62675 8.71993 737 ft 9 kts 79°
2026-05-04 16:36 45.62685 8.72092 735 ft 9 kts 97°
2026-05-04 16:36 45.62521 8.72177 733 ft 14 kts 170°
2026-05-04 16:37 45.62283 8.72245 731 ft 16 kts 169°
2026-05-04 16:37 45.62156 8.72279 728 ft 16 kts 169°
2026-05-04 16:37 45.61895 8.72353 719 ft 18 kts 169°
2026-05-04 16:38 45.61615 8.72430 711 ft 19 kts 169°
2026-05-04 16:39 45.61180 8.72548 697 ft 18 kts 169°
2026-05-04 16:39 45.61089 8.72746 693 ft 13 kts 79°
2026-05-04 16:40 45.61126 8.73002 691 ft 12 kts 74°
2026-05-04 16:40 45.61259 8.73170 690 ft 10 kts 34°
2026-05-04 16:41 45.61360 8.73262 692 ft 6 kts 19°
2026-05-04 16:41 45.61536 8.73234 697 ft 4 kts 349°
2026-05-04 16:42 45.61631 8.73435 697 ft 12 kts 106°
2026-05-04 16:43 45.61588 8.73590 696 ft 0 kts 88°
2026-05-04 16:46 45.61588 8.73592 696 ft 0 kts 88°
2026-05-04 16:46 45.61593 8.73675 696 ft 5 kts 84°
2026-05-04 16:47 45.61624 8.73738 698 ft 0 kts 349°
2026-05-04 16:47 45.61711 8.73715 700 ft 43 kts 349°
2026-05-04 16:48 45.64893 8.72855 1503 ft 174 kts 351°
2026-05-04 16:48 45.66254 8.72558 2207 ft 183 kts 352°
2026-05-04 16:49 45.68925 8.73091 3259 ft 199 kts 48°
2026-05-04 16:49 45.70418 8.77283 4185 ft 229 kts 59°
2026-05-04 16:50 45.72393 8.82038 5254 ft 261 kts 70°
2026-05-04 16:50 45.71981 8.87461 6622 ft 271 kts 120°
2026-05-04 16:51 45.69805 8.91940 8045 ft 260 kts 127°
2026-05-04 16:51 45.68655 8.94186 8319 ft 277 kts 127°
2026-05-04 16:51 45.66382 8.98648 9930 ft 274 kts 128°
2026-05-04 16:52 45.64282 9.03472 10749 ft 303 kts 112°
2026-05-04 16:52 45.63673 9.06512 11075 ft 321 kts 105°
2026-05-04 16:53 45.62701 9.13138 11660 ft 352 kts 104°
2026-05-04 16:53 45.60918 9.24143 12277 ft 398 kts 105°
2026-05-04 16:54 45.60238 9.28150 12737 ft 404 kts 105°
2026-05-04 16:55 45.57357 9.45048 15116 ft 422 kts 105°
2026-05-04 16:55 45.55901 9.53546 16253 ft 431 kts 105°
2026-05-04 16:56 45.54464 9.61891 17329 ft 439 kts 105°
2026-05-04 16:56 45.52154 9.75200 18915 ft 451 kts 106°
2026-05-04 16:57 45.51397 9.79537 19421 ft 454 kts 105°
2026-05-04 16:57 45.49833 9.88468 20424 ft 460 kts 105°
2026-05-04 16:58 45.47444 10.02038 21807 ft 470 kts 105°
2026-05-04 16:58 45.46651 10.06649 22246 ft 473 kts 105°
2026-05-04 16:59 45.45064 10.16090 23134 ft 479 kts 105°
2026-05-04 17:00 45.41801 10.35456 24811 ft 491 kts 104°
2026-05-04 17:00 45.39328 10.49940 26606 ft 485 kts 105°
2026-05-04 17:01 45.37643 10.59728 27789 ft 480 kts 105°
2026-05-04 17:01 45.35939 10.69809 28823 ft 479 kts 104°
2026-05-04 17:02 45.34427 10.80118 29919 ft 475 kts 103°
2026-05-04 17:02 45.33002 10.90222 30700 ft 477 kts 103°
2026-05-04 17:03 45.32310 10.95055 31127 ft 477 kts 103°
2026-05-04 17:03 45.31562 11.00214 31521 ft 478 kts 103°
2026-05-04 17:03 45.30057 11.10440 32248 ft 479 kts 103°
2026-05-04 17:04 45.28531 11.20672 33096 ft 476 kts 103°
2026-05-04 17:04 45.27002 11.30846 33764 ft 477 kts 103°
2026-05-04 17:05 45.25454 11.41072 34439 ft 477 kts 103°
2026-05-04 17:05 45.23959 11.50888 35015 ft 477 kts 103°
2026-05-04 17:06 45.22430 11.60861 35587 ft 476 kts 103°
2026-05-04 17:06 45.21647 11.65950 35830 ft 476 kts 104°
2026-05-04 17:07 45.20052 11.76262 36733 ft 475 kts 103°
2026-05-04 17:07 45.19537 11.79580 36990 ft 474 kts 103°
2026-05-04 17:07 45.17737 11.91110 37043 ft 475 kts 103°
2026-05-04 17:08 45.15360 12.06218 37037 ft 473 kts 103°
2026-05-04 17:09 45.13815 12.15957 37036 ft 473 kts 103°
2026-05-04 17:09 45.12258 12.25711 36960 ft 470 kts 103°
2026-05-04 17:10 45.08328 12.50080 37045 ft 477 kts 103°
2026-05-04 17:11 45.06761 12.59715 37052 ft 477 kts 103°
2026-05-04 17:12 45.04285 12.74836 37057 ft 476 kts 104°
2026-05-04 17:13 45.00220 12.99345 37051 ft 477 kts 104°
2026-05-04 17:14 44.96120 13.18790 37054 ft 476 kts 112°
2026-05-04 17:15 44.92035 13.32689 37057 ft 476 kts 113°
2026-05-04 17:16 44.86808 13.50634 37060 ft 475 kts 112°
2026-05-04 17:17 44.81615 13.68670 37071 ft 474 kts 113°
2026-05-04 17:18 44.76560 13.86168 37078 ft 475 kts 113°
2026-05-04 17:19 44.71508 14.03527 37084 ft 474 kts 112°
2026-05-04 17:20 44.66351 14.21077 37085 ft 473 kts 113°
2026-05-04 17:20 44.62517 14.34066 37084 ft 474 kts 113°
2026-05-04 17:21 44.57407 14.51271 37089 ft 473 kts 112°
2026-05-04 17:22 44.54848 14.59843 37085 ft 473 kts 112°
2026-05-04 17:23 44.49686 14.77052 37092 ft 472 kts 113°
2026-05-04 17:24 44.45777 14.89999 37086 ft 472 kts 113°
2026-05-04 17:25 44.40224 15.08289 37094 ft 473 kts 113°
2026-05-04 17:26 44.34623 15.26600 37097 ft 474 kts 113°
2026-05-04 17:27 44.27477 15.49749 37090 ft 475 kts 113°
2026-05-04 17:28 44.21680 15.68420 37112 ft 474 kts 113°
2026-05-04 17:29 44.12647 15.97221 37108 ft 475 kts 113°
2026-05-04 17:31 44.05002 16.21361 37111 ft 476 kts 113°
2026-05-04 17:32 43.97294 16.45459 37141 ft 477 kts 112°
2026-05-04 17:33 43.91118 16.64606 37142 ft 476 kts 112°
2026-05-04 17:34 43.84949 16.83606 37144 ft 476 kts 113°
2026-05-04 17:35 43.77128 17.07475 37141 ft 477 kts 113°
2026-05-04 17:36 43.74019 17.16918 37152 ft 478 kts 113°
2026-05-04 17:36 43.71019 17.25991 37150 ft 477 kts 113°
2026-05-04 17:37 43.68029 17.35010 37153 ft 477 kts 113°
2026-05-04 17:37 43.64975 17.44189 37155 ft 477 kts 112°
2026-05-04 17:38 43.61919 17.53342 37158 ft 477 kts 112°
2026-05-04 17:38 43.58910 17.62316 37143 ft 477 kts 112°
2026-05-04 17:39 43.54400 17.75709 37112 ft 475 kts 113°
2026-05-04 17:39 43.51356 17.84724 37122 ft 476 kts 113°
2026-05-04 17:40 43.48308 17.93710 37139 ft 477 kts 113°
2026-05-04 17:40 43.45224 18.02775 37144 ft 475 kts 113°
2026-05-04 17:41 43.42187 18.11679 37137 ft 475 kts 113°
2026-05-04 17:41 43.39136 18.20589 37138 ft 475 kts 113°
2026-05-04 17:42 43.36055 18.29544 37141 ft 474 kts 112°
2026-05-04 17:42 43.32986 18.38447 37150 ft 475 kts 112°
2026-05-04 17:43 43.29922 18.47309 37157 ft 474 kts 112°
2026-05-04 17:43 43.26848 18.56175 37171 ft 474 kts 112°
2026-05-04 17:44 43.23735 18.65113 37196 ft 474 kts 113°
2026-05-04 17:44 43.20666 18.73897 37202 ft 472 kts 113°
2026-05-04 17:45 43.17558 18.82768 37195 ft 472 kts 113°
2026-05-04 17:45 43.14555 18.91315 37174 ft 472 kts 113°
2026-05-04 17:46 43.11430 19.00178 37177 ft 474 kts 113°
2026-05-04 17:46 43.08274 19.09093 37180 ft 472 kts 113°
2026-05-04 17:47 43.05098 19.18047 37191 ft 472 kts 113°
2026-05-04 17:47 43.01922 19.26971 37183 ft 471 kts 113°
2026-05-04 17:48 42.98748 19.35856 37170 ft 471 kts 113°
2026-05-04 17:48 42.95540 19.44807 37153 ft 472 kts 112°
2026-05-04 17:49 42.92249 19.53954 37148 ft 472 kts 113°
2026-05-04 17:49 42.89042 19.62842 37150 ft 471 kts 113°
2026-05-04 17:50 42.85782 19.71859 37148 ft 471 kts 113°
2026-05-04 17:50 42.82515 19.80866 37157 ft 471 kts 113°
2026-05-04 17:51 42.79225 19.89907 37166 ft 471 kts 114°
2026-05-04 17:51 42.75948 19.98783 37171 ft 471 kts 115°
2026-05-04 17:52 42.71993 20.07171 37188 ft 475 kts 125°
2026-05-04 17:52 42.67391 20.14798 37184 ft 476 kts 128°
2026-05-04 17:53 42.62594 20.22453 37175 ft 477 kts 128°
2026-05-04 17:53 42.57913 20.29993 37156 ft 477 kts 127°
2026-05-04 17:54 42.53251 20.37571 37149 ft 477 kts 127°
2026-05-04 17:54 42.48635 20.45101 37144 ft 478 kts 127°
2026-05-04 17:55 42.43948 20.52745 37139 ft 477 kts 127°
2026-05-04 17:55 42.39281 20.60337 37139 ft 477 kts 127°
2026-05-04 17:56 42.34645 20.67855 37140 ft 478 kts 127°
2026-05-04 17:56 42.29955 20.75435 37133 ft 479 kts 127°
2026-05-04 17:57 42.25252 20.83026 37136 ft 479 kts 127°
2026-05-04 17:57 42.20566 20.90576 37139 ft 480 kts 127°
2026-05-04 17:58 42.15873 20.98112 37140 ft 479 kts 127°
2026-05-04 17:58 42.11162 21.05698 37138 ft 478 kts 125°
2026-05-04 17:59 42.06872 21.13759 37132 ft 476 kts 120°
2026-05-04 18:00 42.00843 21.26294 37129 ft 475 kts 120°
2026-05-04 18:00 41.96800 21.34556 37131 ft 476 kts 120°
2026-05-04 18:01 41.92689 21.42835 37140 ft 474 kts 120°
2026-05-04 18:01 41.88562 21.51087 37147 ft 475 kts 120°
2026-05-04 18:02 41.82308 21.63530 37140 ft 475 kts 121°
2026-05-04 18:02 41.78145 21.71790 37125 ft 475 kts 121°
2026-05-04 18:03 41.73892 21.80203 37116 ft 475 kts 121°
2026-05-04 18:03 41.69635 21.88599 37126 ft 476 kts 121°
2026-05-04 18:04 41.65389 21.96946 37128 ft 475 kts 121°
2026-05-04 18:05 41.59009 22.09445 37125 ft 474 kts 121°
2026-05-04 18:05 41.54744 22.17778 37137 ft 475 kts 121°
2026-05-04 18:06 41.48387 22.30151 37149 ft 473 kts 121°
2026-05-04 18:06 41.44154 22.38356 37128 ft 473 kts 122°
2026-05-04 18:07 41.39893 22.46605 37124 ft 471 kts 122°
2026-05-04 18:07 41.35653 22.54793 37106 ft 470 kts 122°
2026-05-04 18:08 41.31393 22.62986 37102 ft 472 kts 122°
2026-05-04 18:08 41.27199 22.71020 37087 ft 470 kts 123°
2026-05-04 18:09 41.18045 22.86720 37082 ft 471 kts 129°
2026-05-04 18:10 41.13122 22.94211 37077 ft 470 kts 129°
2026-05-04 18:10 41.08313 23.01875 37080 ft 469 kts 124°
2026-05-04 18:11 41.04032 23.10127 37082 ft 468 kts 121°
2026-05-04 18:11 40.99897 23.18513 37081 ft 469 kts 121°
2026-05-04 18:12 40.95723 23.26848 37092 ft 468 kts 121°
2026-05-04 18:12 40.91553 23.35052 37093 ft 469 kts 121°
2026-05-04 18:13 40.87488 23.42994 37091 ft 468 kts 122°
2026-05-04 18:14 40.81349 23.54938 37094 ft 469 kts 122°
2026-05-04 18:14 40.77191 23.62992 37092 ft 468 kts 121°
2026-05-04 18:15 40.69332 23.78174 37074 ft 469 kts 122°
2026-05-04 18:16 40.65649 23.85259 37069 ft 469 kts 122°
2026-05-04 18:16 40.62042 23.92181 37070 ft 469 kts 122°
2026-05-04 18:17 40.56505 24.02776 37075 ft 469 kts 122°
2026-05-04 18:18 40.50932 24.13400 37082 ft 470 kts 122°
2026-05-04 18:18 40.47155 24.20575 37080 ft 469 kts 122°
2026-05-04 18:19 40.41478 24.31331 37079 ft 469 kts 122°
2026-05-04 18:19 40.37682 24.38504 37082 ft 468 kts 122°
2026-05-04 18:20 40.33903 24.45627 37082 ft 469 kts 122°
2026-05-04 18:20 40.30103 24.52779 37083 ft 469 kts 122°
2026-05-04 18:21 40.26290 24.59936 37084 ft 469 kts 122°
2026-05-04 18:21 40.22549 24.66940 37085 ft 468 kts 122°
2026-05-04 18:22 40.18798 24.73953 37078 ft 469 kts 122°
2026-05-04 18:22 40.15024 24.80990 37084 ft 468 kts 122°
2026-05-04 18:23 40.11230 24.88053 37088 ft 468 kts 123°
2026-05-04 18:23 40.07470 24.95030 37088 ft 469 kts 122°
2026-05-04 18:24 40.03729 25.01955 37087 ft 469 kts 123°
2026-05-04 18:24 39.99961 25.08908 37084 ft 468 kts 122°
2026-05-04 18:25 39.96211 25.15825 37079 ft 470 kts 122°
2026-05-04 18:25 39.92349 25.22697 37082 ft 471 kts 126°
2026-05-04 18:26 39.87797 25.28865 37078 ft 473 kts 135°
2026-05-04 18:26 39.82723 25.34597 37085 ft 475 kts 137°
2026-05-04 18:27 39.77603 25.40211 37093 ft 475 kts 137°
2026-05-04 18:27 39.72480 25.45878 36948 ft 476 kts 137°
2026-05-04 18:28 39.69928 25.48725 36713 ft 476 kts 136°
2026-05-04 18:28 39.67401 25.51551 36474 ft 472 kts 136°
2026-05-04 18:28 39.64883 25.54374 36253 ft 470 kts 136°
2026-05-04 18:28 39.62404 25.57159 36092 ft 469 kts 136°
2026-05-04 18:29 39.59932 25.59939 35886 ft 470 kts 136°
2026-05-04 18:29 39.57454 25.62723 35470 ft 470 kts 136°
2026-05-04 18:29 39.54945 25.65541 34991 ft 468 kts 136°
2026-05-04 18:29 39.52509 25.68275 34529 ft 464 kts 136°
2026-05-04 18:30 39.47662 25.73702 33403 ft 458 kts 136°
2026-05-04 18:30 39.45248 25.76403 32851 ft 461 kts 136°
2026-05-04 18:30 39.42830 25.79095 32302 ft 464 kts 136°
2026-05-04 18:31 39.40372 25.81815 31746 ft 465 kts 136°
2026-05-04 18:31 39.37944 25.84496 31203 ft 464 kts 136°
2026-05-04 18:31 39.35482 25.87212 30654 ft 465 kts 136°
2026-05-04 18:31 39.33002 25.89946 30105 ft 467 kts 136°
2026-05-04 18:32 39.30561 25.92636 29567 ft 469 kts 135°
2026-05-04 18:32 39.28059 25.95395 29020 ft 472 kts 136°
2026-05-04 18:32 39.25530 25.98182 28471 ft 473 kts 135°
2026-05-04 18:32 39.23020 26.00944 27929 ft 474 kts 135°
2026-05-04 18:33 39.20490 26.03729 27387 ft 477 kts 135°
2026-05-04 18:33 39.17967 26.06504 26849 ft 478 kts 135°
2026-05-04 18:33 39.15452 26.09267 26315 ft 480 kts 135°
2026-05-04 18:33 39.12922 26.12043 25783 ft 482 kts 135°
2026-05-04 18:34 39.10345 26.14867 25245 ft 484 kts 135°
2026-05-04 18:34 39.07800 26.17652 24724 ft 481 kts 135°
2026-05-04 18:34 39.05278 26.20406 24188 ft 478 kts 135°
2026-05-04 18:34 39.02738 26.23177 23641 ft 475 kts 135°
2026-05-04 18:35 39.00172 26.25975 23098 ft 472 kts 135°
2026-05-04 18:35 38.97594 26.28786 22555 ft 470 kts 135°
2026-05-04 18:35 38.95041 26.31568 22014 ft 469 kts 135°
2026-05-04 18:35 38.92562 26.34268 21493 ft 468 kts 135°
2026-05-04 18:36 38.90091 26.36964 20967 ft 466 kts 135°
2026-05-04 18:36 38.87646 26.39646 20446 ft 466 kts 135°
2026-05-04 18:36 38.85186 26.42355 19923 ft 464 kts 135°
2026-05-04 18:36 38.82743 26.45046 19407 ft 462 kts 135°
2026-05-04 18:37 38.80309 26.47726 18908 ft 459 kts 135°
2026-05-04 18:37 38.77874 26.50406 18414 ft 458 kts 135°
2026-05-04 18:37 38.75425 26.53098 17910 ft 448 kts 135°
2026-05-04 18:37 38.73033 26.55723 17406 ft 439 kts 135°
2026-05-04 18:38 38.70684 26.58299 16908 ft 430 kts 135°
2026-05-04 18:38 38.68370 26.60835 16400 ft 422 kts 135°
2026-05-04 18:38 38.66118 26.63302 15903 ft 415 kts 135°
2026-05-04 18:38 38.63918 26.65710 15451 ft 407 kts 136°
2026-05-04 18:39 38.61780 26.68049 15001 ft 402 kts 136°
2026-05-04 18:39 38.59667 26.70360 14560 ft 399 kts 136°
2026-05-04 18:39 38.57585 26.72636 14124 ft 398 kts 136°
2026-05-04 18:39 38.55467 26.74949 13679 ft 396 kts 136°
2026-05-04 18:40 38.53407 26.77196 13242 ft 392 kts 136°
2026-05-04 18:40 38.51311 26.79477 12838 ft 383 kts 136°
2026-05-04 18:40 38.49291 26.81673 12434 ft 375 kts 136°
2026-05-04 18:40 38.47333 26.83798 12015 ft 361 kts 136°
2026-05-04 18:41 38.45480 26.85805 11643 ft 347 kts 136°
2026-05-04 18:41 38.43651 26.87788 11263 ft 334 kts 135°
2026-05-04 18:41 38.41906 26.89681 10879 ft 323 kts 135°
2026-05-04 18:41 38.40141 26.91598 10496 ft 315 kts 135°
2026-05-04 18:42 38.38430 26.93461 10097 ft 313 kts 135°
2026-05-04 18:42 38.36722 26.95313 9768 ft 309 kts 135°
2026-05-04 18:42 38.35100 26.97069 9496 ft 303 kts 135°
2026-05-04 18:42 38.33519 26.98778 9240 ft 297 kts 135°
2026-05-04 18:43 38.31894 27.00471 8982 ft 293 kts 139°
2026-05-04 18:43 38.30172 27.01841 8737 ft 291 kts 148°
2026-05-04 18:43 38.28371 27.02983 8468 ft 288 kts 151°
2026-05-04 18:43 38.26557 27.04060 8167 ft 285 kts 151°
2026-05-04 18:44 38.24750 27.05144 7862 ft 283 kts 150°
2026-05-04 18:44 38.23560 27.05873 7660 ft 281 kts 150°
2026-05-04 18:44 38.21189 27.07215 7245 ft 278 kts 158°
2026-05-04 18:44 38.19339 27.07892 6963 ft 275 kts 163°
2026-05-04 18:45 38.17451 27.08435 6702 ft 272 kts 165°
2026-05-04 18:45 38.15611 27.08943 6452 ft 269 kts 165°
2026-05-04 18:45 38.13805 27.09459 6210 ft 266 kts 164°
2026-05-04 18:45 38.12007 27.09990 5955 ft 264 kts 164°
2026-05-04 18:46 38.10224 27.10525 5712 ft 264 kts 164°
2026-05-04 18:46 38.08438 27.11065 5463 ft 261 kts 164°
2026-05-04 18:46 38.06717 27.11771 5184 ft 256 kts 151°
2026-05-04 18:46 38.05379 27.13086 4868 ft 240 kts 118°
2026-05-04 18:47 38.04821 27.14986 4559 ft 219 kts 88°
2026-05-04 18:47 38.04852 27.16887 4283 ft 208 kts 76°
2026-05-04 18:47 38.05121 27.18681 4025 ft 202 kts 67°
2026-05-04 18:47 38.05785 27.20234 3762 ft 190 kts 37°
2026-05-04 18:48 38.06961 27.20834 3547 ft 181 kts
2026-05-04 18:48 38.08226 27.20939 3364 ft 177 kts
2026-05-04 18:48 38.09459 27.20943 3152 ft 170 kts 356°
2026-05-04 18:48 38.10616 27.20806 2965 ft 162 kts 352°
2026-05-04 18:49 38.11740 27.20580 2797 ft 162 kts 349°
2026-05-04 18:49 38.12796 27.20323 2648 ft 150 kts 348°
2026-05-04 18:49 38.13816 27.20051 2550 ft 145 kts 348°
2026-05-04 18:49 38.14798 27.19776 2408 ft 143 kts 347°
2026-05-04 18:50 38.15775 27.19496 2280 ft 141 kts 347°
2026-05-04 18:50 38.16734 27.19215 2152 ft 141 kts 347°
2026-05-04 18:50 38.17724 27.18922 2043 ft 140 kts 347°
2026-05-04 18:50 38.18675 27.18632 2013 ft 139 kts 346°
2026-05-04 18:51 38.19616 27.18320 1936 ft 143 kts 346°
2026-05-04 18:51 38.20626 27.18011 1920 ft 145 kts 347°
2026-05-04 18:51 38.21600 27.17729 1674 ft 142 kts 347°
2026-05-04 18:51 38.22568 27.17462 1418 ft 142 kts 347°
2026-05-04 18:52 38.23537 27.17180 1223 ft 139 kts 346°
2026-05-04 18:52 38.24475 27.16897 1038 ft 137 kts 347°
2026-05-04 18:52 38.25420 27.16637 838 ft 137 kts 346°
2026-05-04 18:52 38.26342 27.16350 671 ft 139 kts 346°
2026-05-04 18:53 38.27292 27.16069 543 ft 141 kts 345°
2026-05-04 18:53 38.28266 27.15770 425 ft 141 kts 347°
2026-05-04 18:53 38.29137 27.15508 403 ft 100 kts 346°
2026-05-04 18:53 38.29604 27.15368 406 ft 54 kts 345°
2026-05-04 18:54 38.29875 27.15285 410 ft 27 kts 347°
2026-05-04 18:54 38.29978 27.15172 412 ft 19 kts 254°
2026-05-04 18:54 38.29953 27.15039 411 ft 14 kts 258°
2026-05-04 18:54 38.29913 27.14961 413 ft 9 kts 179°
2026-05-04 18:55 38.29846 27.14979 411 ft 10 kts 166°
2026-05-04 18:55 38.29670 27.15034 403 ft 14 kts 167°
2026-05-04 18:55 38.29602 27.15050 402 ft 6 kts 190°
2026-05-04 18:56 38.29589 27.15015 402 ft 4 kts 256°
2026-05-04 18:56 38.29582 27.14982 402 ft 2 kts 257°
2026-05-04 18:56 38.29581 27.14976 402 ft 0 kts 256°